{"data":{"norad_id":60738,"epoch":"2026-05-25T01:56:05.371872Z","epoch_age_seconds":65196,"freshness":"FRESH","line1":"1 60738U 24152U   26145.08061773 -.00000337  00000+0  74366-6 0  9993","line2":"2 60738  53.1604 273.8122 0000747  87.9023 272.2063 15.30195117 98548","mean_motion":15.30195117,"eccentricity":7.47e-5,"inclination_deg":53.1604,"raan_deg":273.8122,"arg_perigee_deg":87.9023,"mean_anomaly_deg":272.2063,"bstar":7.4366e-7,"rev_number":9854,"period_min":94.105646005666,"perigee_km":474.71770272723,"apogee_km":475.74159570463,"semimajor_km":6853.3666492159,"source":"CELESTRAK","updated_at":"2026-05-25T13:38:19.311019Z"}}